This demonstration page uses our WeatherBlox Daily Observations layout. Learn more.

Left ArrowRight Arrow

36.17497, -115.13722

Hourly Observations for December 20, 2018

Temp ( °F °C ) Dew Point ( °F °C ) Humidity (%) Winds ( mph kmh ) Pressure ( in mb ) Visibility ( mi km ) Precip ( " mm )
12:53 am 00:53 Clear 45 7.2 28 -2.2 52 52 WNW 7 11 30.27 1025 10 16.0934 0 0
1:53 am 01:53 Clear 45 7.2 28 -2.2 52 52 Calm 30.27 1025 10 16.0934 0 0
2:53 am 02:53 Clear 42 5.6 28 -2.2 58 58 NNW 5 7 30.28 1025 10 16.0934 0 0
3:53 am 03:53 Clear 42 5.6 27 -2.8 55 55 NNW 3 6 30.27 1025 10 16.0934 0 0
4:53 am 04:53 Clear 41 5 28 -2.2 60 60 NW 7 11 30.27 1025 10 16.0934 0 0
5:53 am 05:53 Clear 39 3.9 27 -2.8 62 62 Calm 30.28 1026 10 16.0934 0 0
6:53 am 06:53 Sunny 43 6.1 28 -2.2 56 56 NW 3 6 30.29 1026 10 16.0934 0 0
7:53 am 07:53 Sunny 44 6.7 29 -1.7 55 55 Calm 30.31 1026 10 16.0934 0 0
8:53 am 08:53 Sunny 50 10 29 -1.7 44 44 Calm 30.32 1027 10 16.0934 0 0
9:53 am 09:53 Sunny 54 12.2 30 -1.1 40 40 Calm 30.31 1027 10 16.0934 0 0
10:53 am 10:53 Sunny 57 13.9 30 -1.1 36 36 S 3 6 30.27 1025 10 16.0934 0 0
11:53 am 11:53 Sunny 60 15.6 27 -2.8 28 28 Calm 30.24 1024 10 16.0934 0 0
12:53 pm 12:53 Sunny 61 16.1 27 -2.8 27 27 SSE 6 9 30.22 1023 10 16.0934 0 0
1:53 pm 13:53 Sunny 61 16.1 27 -2.8 27 27 SE 5 7 30.19 1022 10 16.0934 0 0
2:53 pm 14:53 Sunny 61 16.1 27 -2.8 27 27 SE 3 6 30.17 1022 10 16.0934 0 0
3:53 pm 15:53 Sunny 61 16.1 27 -2.8 27 27 SE 3 6 30.16 1021 10 16.0934 0 0
4:53 pm 16:53 Clear 59 15 27 -2.8 29 29 Calm 30.16 1021 10 16.0934 0 0
5:53 pm 17:53 Clear 57 13.9 27 -2.8 32 32 Calm 30.15 1021 10 16.0934 0 0
6:53 pm 18:53 Clear 56 13.3 29 -1.7 36 36 Calm 30.15 1021 10 16.0934 0 0
7:53 pm 19:53 Clear 54 12.2 30 -1.1 40 40 Calm 30.14 1021 10 16.0934 0 0
8:53 pm 20:53 Clear 51 10.6 31 -0.6 46 46 WNW 3 6 30.12 1020 10 16.0934 0 0
9:53 pm 21:53 Clear 49 9.4 30 -1.1 48 48 NW 3 6 30.11 1020 10 16.0934 0 0
10:53 pm 22:53 Clear 49 9.4 31 -0.6 50 50 NNW 5 7 30.1 1019 10 16.0934 0 0
11:53 pm 23:53 Clear 49 9.4 30 -1.1 48 48 NW 5 7 30.08 1019 10 16.0934 0 0

Powered by AerisWeather